User: anonymous   Login
Location: Unspecified
(47.4992°N, 121.7766°W)
Time: 15:41:52
(UTC-07:00)
Language:

ISS - Orbit

View from above orbital plane
View from above orbital plane
View from above satellite
View from above satellite

Ground track
Ground track

The orbit data is extracted from the following two-line orbital elements,

1 25544U 98067A   24139.68287037  .00026016  00000-0  43801-3 0  9994
2 25544  51.6382 101.6137 0003376 179.9086 169.7943 15.51524946453963
Epoch (UTC): 18 May 2024 16:23:20
Eccentricity: 0.0003376
inclination: 51.6382°
perigee height: 410 km
apogee height: 414 km
right ascension of ascending node: 101.6137°
argument of perigee: 179.9086°
revolutions per day: 15.51524946
mean anomaly at epoch: 169.7943°
orbit number at epoch: 45396

The dashed part of the orbit path shows where the satellite is in the earth's shadow,  

DLR